FENGYUN 1C DEB, 38514

Orbit data source: Space-Track

FENGYUN 1C DEB, 38514 is space debris in SSO originally from a launch on Mon, 10 May 1999 UTC launched from the Taiyaun Space Center, China (TSC). Fengyun 1C debris stems from the Chinese weather satellite Fengyun-1C, which was intentionally destroyed by a Chinese anti-satellite missile in 2007. This event dramatically increased the amount of space debris, with thousands of trackable fragments posing hazards to satellites and human spaceflight. The Fengyun 1C debris cloud has become a focal point in discussions about space sustainability and the need for international regulations to prevent the creation of new debris.

Loading next visibility...
Identifier
38514, 1999-025ESZ
Orbit
SSO
Country
Flag of CNCN / PRC
Related business
Manufacturer
Unknown
Mission
Spacecraft
Bus & Motor
Unknown
Mass
Unknown
Launch date (UTC)
1999-05-10 (27 years ago)
Launch vehicle
Unknown
Launch site
Taiyaun Space Center, China (TSC)
Object type
Payload
Rocket body
Debris
Shape & HBR
Unknown shape, 0.1 m
Radar Cross Section
Medium (>0.1 m² and <1 m²)

Expand to show TLE details & history
Last TLE update: 4 days ago

TLE from 4 days ago
0 FENGYUN 1C DEB
1 38514U 99025ESZ 26169.80194513  .00003802  00000-0  12962-2 0  9996
2 38514  98.0423 187.2518 0257385 180.8688 179.2079 14.19956779906626
Epoch: 2026-06-18T19:14Z
TLE epoch observation values (Epoch: 2026-06-18T19:14:48.059Z)
Latitude
0.00002°
Longitude
-8.4885°
Altitude
1,013.868 km
Speed
7.25 km/s
True Right ascension
12h 29m 00s
True Declination
0° 00' 00"
Sunlit
Object was in daylight at epoch
Visualization orbit readout
Latitude
Unknown
Longitude
Unknown
Altitude
Unknown
Speed
Unknown
Apparent Right ascension
Unknown
Apparent Declination
Unknown
Sunlit
N/A
Visualization observer readout
Local Sidereal Time
07:09:53
Azimuth
Unknown
Elevation
Unknown
Doppler factor
Unknown
Orbital elements
Apogee altitude
1,007.961 km
Perigee altitude
637.287 km
Semi-major axis
7,200.761 km
Eccentricity
0.02574
Inclination
98.0423°
RAAN
187.2518°
Arg. of periapsis
180.8688°
True anomaly
179.2474°
Mean anomaly
179.2079°
Eccentric anomaly
179.22778°
Mean motion
3.55202 °/min
Orbital period
101.35 mins
BSTAR
0.0012962
Loading maneuver chart data...
Computing Atmospheric mass density...

Documentation

Showing up to 5 results
|